星链-34106 (STARLINK-34106)

导读

STARLINK-34106是美国太空探索技术公司(SpaceX)旗下星链(Starlink)星座的成员,于2025年5月10日发射升空。作为低轨通信卫星,它采用平板设计搭载太阳电池阵,配备氪工质霍尔推进器,支持Ku/Ka波段通信与光学星间链路,具备自主避撞能力,旨在为全球尤其是偏远地区提供高速低延迟宽带互联网服务,设计寿命约5-7年,退役后会主动离轨坠入大气层焚毁。

基本信息
目录编号:
63907
目录名称:
STARLINK-34106
国际标识:
2025-095T
轨道中心:
EARTH
卫星名称:
星链-34106
卫星全名:
星链-34106 (STARLINK-34106)
卫星状态:
在轨 (已飞行400 天)
发射日期:
2025-05-10 UTC
国别 :
美国 (US)
星等 :
--
轨道信息
数据来源 国际轨道数据
星历时间: 2026-06-14T03:44:09+0800
6小时前
查看轨道信息
半长轴: 6861.147km
偏心率: 0.0000186
轨道倾角: 43.006°
近地点辐角 88.437°
升交点赤经 352.995°
平近点角 271.651°
近地点: 482.882km
远地点: 483.138km
周期: 94.266分钟
每日圈数: 15.275932
详细信息
固有亮度:
5
最大亮度:
2.5
卫星平台:
Starlink V1.0
覆盖范围:
全球
运营商:
太空探索技术公司
运营商所在国:
美国
制造商(研发单位):
太空探索技术公司
制造商所在国:
美国
使用方式:
暂无
卫星简介
Starlink 计划是 SpaceX 推出的全球卫星互联网项目,通过发射低轨道卫星,为全球尤其是偏远地区提供高速、低延迟的互联网服务。自 2019 年起,Starlink 已部署数千颗卫星,旨在缩小全球数字鸿沟,推动互联网普及。该项目还为军事、航空等行业提供通信支持,带来广泛经济效益。
2D轨道图
3D轨道图
轨道高度分析图
轨道倾角分析图
轨道综合分析图
查看轨道综合分析图